Regional Weather Roundup
Issued by NWS

Home | Current Version | Previous Version | Graphics & Text | Print | Product List | Glossary On
Versions: 1 2 3 4 5 6 7 8 9 10 11 12 13 14 15 16 17 18 19 20 21 22 23 24 25 26 27 28 29 30 31 32 33 34 35 36 37 38 39 40 41 42 43 44 45 46 47 48 49 50
000
ASUS43 KOAX 180310
RWRNE

WEATHER ROUNDUP FOR NEBRASKA
NATIONAL WEATHER SERVICE OMAHA NE
1000 PM CDT THU APR 17 2014

NOTES: SATELLITE DATA IS BEING USED TO AUGMENT CLOUD COVER ABOVE
       12000 FEET.
       "FAIR" INDICATES FEW OR NO CLOUDS BELOW 12,000 FEET WITH NO
       SIGNIFICANT WEATHER AND/OR OBSTRUCTIONS TO VISIBILITY.

  * THESE STATIONS DO NOT REPORT WEATHER SUCH AS RAIN...SNOW OR FOG.

NEZ001>004-019>022-054>056-180400-
NEBRASKA PANHANDLE

CITY           SKY/WX    TMP DP  RH WIND       PRES   REMARKS
SCOTTSBLUFF    CLEAR     50  37  61 SE17      29.97R
ALLIANCE       MOCLDY    46  36  68 SE15      30.00R
CHADRON        PTCLDY    49  37  63 SE15      29.96S
KIMBALL        CLEAR     46  29  52 S9        29.98S
SIDNEY         CLEAR     49  34  56 S15       30.02R
$$

NEZ057>060-069>072-079>082-180400-
SOUTHWEST NEBRASKA

CITY           SKY/WX    TMP DP  RH WIND       PRES   REMARKS
NORTH PLATTE   CLEAR     45  31  58 SE13      30.12R
IMPERIAL         N/A     48  36  63 S17       30.10R
LEXINGTON      CLEAR     46  34  63 SE7       30.17R
MCCOOK         CLEAR     47  33  58 S12       30.16R
OGALLALA       CLEAR     49  36  60 S15G24    30.06R
$$

NEZ005>010-023>029-035>040-094-180400-
NORTH CENTRAL NEBRASKA

CITY           SKY/WX    TMP DP  RH WIND       PRES   REMARKS
VALENTINE      PTCLDY    45  25  45 SE14      30.10R
AINSWORTH      CLEAR     42  27  53 SE12      30.11F
BROKEN BOW     CLEAR     41  29  62 SE8       30.16R
O`NEILL        CLEAR     43  22  43 SE7       30.19R
ORD            CLEAR     45  26  47 SE9       30.18R
THEDFORD       CLEAR     46  33  61 SE8       30.11R
$$

NEZ041-046>049-061>064-073>077-083>087-180400-
SOUTH CENTRAL NEBRASKA

CITY           SKY/WX    TMP DP  RH WIND       PRES   REMARKS
GRAND ISLAND   CLEAR     45  28  51 SE8       30.22R
AURORA         CLEAR     40  26  58 SE6       30.22S
HASTINGS       CLEAR     47  27  45 SE7       30.21R
HEBRON         CLEAR     40  27  59 S6        30.25R
HOLDREGE       CLEAR     41  30  64 SE9       30.19R
KEARNEY *      FAIR      43  28  56 SE8       30.20S
YORK           CLEAR     43  27  52 SE8       30.24R
$$

NEZ011>018-030>034-042>045-180400-
NORTHEAST NEBRASKA

CITY           SKY/WX    TMP DP  RH WIND       PRES   REMARKS
NORFOLK        PTCLDY    40  24  53 SE7       30.22S
ALBION         CLEAR     38  24  57 SE5       30.21S WCI  35
BLAIR          PTCLDY    47  22  37 E5        30.25S
COLUMBUS *     CLEAR     39  21  48 E6        30.24S WCI  35
FREMONT        PTCLDY    47  24  41 CALM      30.26R
TEKAMAH        MOCLDY    43  29  57 CALM      30.26R
$$

NEZ050>053-065>068-078-088>093-180400-
SOUTHEAST NEBRASKA

CITY           SKY/WX    TMP DP  RH WIND       PRES   REMARKS
LINCOLN        PTCLDY    46  24  42 SE3       30.27R
OMAHA EPPLEY   PTCLDY    48  25  40 E3        30.27R
BEATRICE       PTCLDY    45  27  49 SE3       30.25S
FALLS CITY     CLEAR     47  27  45 CALM      30.26S
NEBRASKA CITY  CLEAR     48  27  43 S5        30.26S
PLATTSMOUTH    PTCLDY    47  24  40 CALM      30.26S
$$

NEZ044-045-051>053-067-180400-
OMAHA AREA

CITY           SKY/WX    TMP DP  RH WIND       PRES   REMARKS
OMAHA EPPLEY   PTCLDY    48  25  40 E3        30.27R
BLAIR          PTCLDY    47  22  37 E5        30.25S
FREMONT        PTCLDY    47  24  41 CALM      30.26R
MILLARD        PTCLDY    44  27  51 CALM      30.26S
OFFUTT AFB     PTCLDY    38  29  69 CALM      30.26R
PLATTSMOUTH    PTCLDY    47  24  40 CALM      30.26S
WAHOO          FAIR      39  23  52 E6        30.26R
$$



USA.gov is the U.S. government's official web portal to all federal, state and local government web resources and services.